Location: Benedenknijpe
(52.9667°N, 5.9667°E)
Time: 21:31:39
(UTC+00:00)

Daily predictions for brighter satellites

Satellite Brightness Start Highest point End
(mag) Time Altitude Azimuth Time Altitude Azimuth Time Altitude Azimuth
Cosmos 1844 Rocket 4.2 15:55:26 10° NNW 15:59:11 18° NNE 16:02:56 10° ENE
Cosmos 2219 4.0 15:54:47 10° NNW 15:59:52 31° NE 16:04:56 10° ESE
H-2A R/B 4.3 15:57:17 10° N 16:00:14 23° WNW 16:03:08 10° WSW
ATLAS CENTAUR R/B 3.7 15:59:32 10° WNW 16:02:08 23° WSW 16:04:41 10° S
Cosmos 1980 Rocket 3.9 16:00:59 10° SE 16:03:56 15° E 16:06:52 10° ENE
CORIOLIS 4.4 15:59:22 10° SE 16:04:24 45° ENE 16:09:29 10° N
Cosmos 1634 Rocket 4.0 15:59:58 10° S 16:06:09 86° E 16:12:22 10° N
NOSS 3-2 (A) 3.3 16:01:12 10° SW 16:06:22 86° SE 16:12:42 10° NE
Cosmos 2263 Rocket 2.6 16:03:11 10° NNW 16:08:35 42° NE 16:13:59 10° ESE
NOSS 3-2 (C) 3.7 16:05:04 10° SSW 16:09:54 45° ESE 16:15:41 10° NE
Cosmos 1867 3.7 16:04:57 10° NW 16:10:27 84° SW 16:15:54 10° SE
SL-08 ROCKET BODY 4.4 16:06:28 10° N 16:12:28 82° E 16:18:32 10° SSE
ARIANE 5 R/B 3.0 16:09:45 10° SE 16:14:29 40° ENE 16:19:16 10° N
Cosmos 2279 Rocket 4.0 16:08:42 10° S 16:14:53 73° E 16:21:08 10° NNE
Cosmos 1825 Rocket 4.0 16:12:32 10° N 16:16:36 37° ENE 16:20:36 10° SE
Cosmos 1943 Rocket 4.2 16:16:33 10° NNW 16:18:44 12° N 16:20:55 10° NNE
Iridium 51 4.2 16:15:36 10° SSW 16:18:44 65° W 16:21:57 10° N
Cosmos 1758 Rocket 3.8 16:16:42 10° NNW 16:21:01 74° W 16:25:16 10° S
Meteor 1-25 Rocket 4.4 16:15:25 10° N 16:21:11 58° ENE 16:26:51 10° SSE
Cosmos 1076 Rocket 4.3 16:19:53 10° N 16:23:42 30° ENE 16:27:31 10° SE
Cosmos 1655 Rocket 4.4 16:18:16 10° N 16:24:08 40° ENE 16:29:57 10° SE
Lacrosse 4 Rocket 3.0 16:21:03 10° W 16:24:26 25° NW 16:27:46 10° NNE
Cosmos 2098 Rocket 3.3 16:20:02 10° S 16:24:28 71° E 16:29:41 10° NNE
USA 290 3.9 16:21:39 10° NW 16:24:43 39° WSW 16:27:46 10° S
SAR-Lupe-4 4.2 16:23:46 10° SE 16:27:00 34° ENE 16:30:16 10° N
Cosmos 1782 2.5 16:23:48 10° S 16:27:24 88° W 16:31:01 10° N
Cosmos 1933 3.9 16:24:19 10° SSE 16:27:45 33° E 16:31:13 10° NNE
Cosmos 2227 Rocket 2.2 16:23:10 10° NNW 16:28:52 81° ENE 16:34:31 10° SE
Meteor 1-28 Rocket 3.1 16:25:50 10° NNE 16:29:08 49° E 16:32:22 10° S
Cosmos 44 Rocket 4.4 16:25:05 10° NW 16:29:28 28° NNE 16:33:16 13° ENE
CBERS-1 4.2 16:28:17 10° SSE 16:33:24 81° WSW 16:38:34 10° NNW
Cosmos 2369 Rocket 4.0 16:29:03 10° W 16:33:26 22° NNW 16:37:51 10° NNE
SPOT 1/Viking Rocket 4.2 16:33:44 10° SE 16:38:21 33° ENE 16:42:59 10° N
SAR-Lupe-1 4.5 16:36:13 10° SE 16:39:37 41° ENE 16:43:03 10° N
SJ-12 4.0 16:36:13 10° SE 16:39:50 45° ENE 16:43:29 10° N
CENTAUR R/B 3.3 16:35:48 10° W 16:41:49 49° NNW 16:48:30 13° NE
Cosmos 2180 Rocket 4.4 16:35:45 10° S 16:41:52 81° E 16:48:05 10° NNE
Cosmos 1697 Rocket 2.9 16:37:11 10° S 16:42:37 53° ESE 16:47:33 13° NE
Cosmos 2360 4.3 16:38:29 10° SSW 16:44:13 85° WNW 16:49:59 10° NNE
Cosmos 1538 Rocket 4.1 16:39:39 10° NNW 16:44:53 58° ENE 16:50:07 10° SE
CZ-2D R/B 2.9 16:42:08 10° SE 16:45:09 47° ENE 16:48:13 10° N
NOSS 3 (A) 3.9 16:43:59 10° NW 16:46:13 90° SSE 16:49:06 10° SE
NOSS 2-3 (C) 4.4 16:43:39 10° S 16:46:25 23° ESE 16:47:48 18° E
Cosmos 2058 Rocket 4.3 16:44:08 10° SE 16:47:33 22° E 16:49:15 18° NE
Cosmos 2266 Rocket 4.0 16:41:50 10° N 16:48:01 88° W 16:54:05 10° S
Cosmos 2278 Rocket 4.2 16:45:44 10° NNW 16:48:04 12° N 16:50:23 10° NNE
Cosmos 1656 4.2 16:46:29 10° SW 16:52:04 61° NW 16:57:45 10° NNE
Cosmos 1606 Rocket 3.6 16:49:22 10° S 16:53:41 58° E 16:58:04 10° NNE
Cosmos 1503 Rocket 4.0 16:50:53 10° SSW 16:56:07 89° SE 17:01:11 11° NNE
Lacrosse 5 rocket 1.6 16:53:31 10° WNW 16:57:06 43° N 16:58:51 24° NE
UNK 3.7 16:53:24 10° NNE 16:58:00 67° ESE 17:02:31 10° S
CZ-4C R/B 4.0 16:52:08 10° NW 16:58:47 50° SW 17:06:56 10° SSE
Cosmos 1743 4.5 16:57:38 10° NNW 17:00:29 28° W 17:03:18 10° SSW
Cosmos 1484 Rocket 4.4 16:57:23 10° SSW 17:00:35 33° W 17:03:46 10° NNW
Thor Agena Rocket 4.0 16:56:35 10° S 17:01:44 65° WSW 17:06:52 10° NNW
IRS-P3 4.0 16:59:05 10° SSE 17:04:21 69° ENE 17:09:40 10° NNW
NOSS 2-3 (D) 3.8 17:02:11 10° SSW 17:05:38 40° SE 17:07:02 28° E
NOSS 2-3 (E) 3.6 17:02:48 10° SSW 17:06:16 43° SE 17:07:43 29° ENE
Cosmos 1354 Rocket 3.9 17:01:53 10° SSW 17:07:09 80° ESE 17:11:39 14° NNE
Resurs 1-3 4.1 17:04:35 10° SE 17:08:28 34° ENE 17:12:21 10° N
Cosmos 2151 4.4 17:04:40 10° NNW 17:08:34 40° W 17:12:27 10° SSW
NOSS 2-2 (D) 4.0 17:06:00 10° W 17:08:49 31° NNW 17:10:10 21° NNE
CZ-4 R/B 4.5 17:05:14 10° SE 17:09:02 48° ENE 17:12:50 10° N
Cosmos 1777 Rocket 4.3 17:04:12 10° SW 17:09:25 66° WNW 17:14:25 11° NNE
Cosmos-2242 3.7 17:06:52 10° SSE 17:10:35 30° E 17:11:24 28° ENE
Cosmos 1844 4.5 17:05:48 10° NNW 17:10:45 31° NE 17:12:43 25° ENE
USA 238 DEB 4.0 17:05:24 10° S 17:11:09 43° ESE 17:14:48 23° ENE
USA 238 4.0 17:05:31 10° S 17:11:16 43° ESE 17:14:54 23° ENE
MOS 1 Rocket 3.4 17:06:18 10° SSE 17:11:20 80° ENE 17:16:38 10° NNW
Cosmos 1898 Rocket 4.2 17:10:25 10° SSE 17:14:58 33° ESE 17:16:32 27° ENE
Gbstr 26 Del rocket 3.3 17:11:09 10° SW 17:15:03 46° SSE 17:16:29 30° ESE
Spot 4 Rocket 4.2 17:10:17 10° SE 17:15:08 46° ENE 17:20:02 10° N
Cosmos 1726 Rocket 3.6 17:11:38 10° S 17:16:14 72° E 17:20:37 11° NNE
USA 215 3.4 17:12:08 22° ENE 17:16:29 64° N 17:22:57 10° W
ERS-1 4.5 17:12:25 10° SSE 17:17:25 85° WSW 17:22:25 10° NNW
Cosmos 2082 3.7 17:11:42 10° NNW 17:17:26 67° NE 17:23:07 10° SE
Cosmos 372 Rocket 4.4 17:12:46 10° S 17:17:33 41° ESE 17:19:40 27° ENE
AQUARIUS 4.1 17:14:30 10° SSE 17:18:55 85° WSW 17:23:21 10° NNW
Cosmos 1805 3.0 17:16:31 10° N 17:19:46 46° ENE 17:23:01 10° SSE
SMAP 3.9 17:15:46 10° S 17:20:19 52° W 17:24:54 10° NNW
IRAS Rocket 4.4 17:16:15 10° SE 17:21:27 47° ENE 17:26:40 10° N
GEOS 3 Rocket 3.8 17:19:10 26° ENE 17:22:15 62° SE 17:27:34 10° SSW
Landsat 7 4.3 17:19:49 10° S 17:24:25 60° W 17:29:03 10° NNW
Cosmos 923 Rocket 4.0 17:21:15 10° NNW 17:26:25 57° ENE 17:31:31 10° SE
YAOGAN 1 2.6 17:22:59 10° SE 17:27:06 50° ENE 17:31:14 10° N
Cosmos 1745 Rocket 4.4 17:24:08 10° N 17:29:47 36° ENE 17:34:25 14° SE
Cosmos 1937 Rocket 4.1 17:25:57 10° SSE 17:30:31 33° ESE 17:30:51 32° E
SL-16 R/B 4.2 17:28:57 10° SE 17:29:26 11° SE 17:29:26 11° SE
Meteor 2-20 Rocket 4.4 17:27:36 10° S 17:33:35 56° E 17:39:18 10° NNE
SL-16 R/B 3.4 17:27:55 10° N 17:33:52 48° WNW 17:39:46 10° SW
Cosmos 990 Rocket 4.1 17:29:25 10° SSW 17:34:33 76° WNW 17:38:14 20° NNE
Cosmos 1461 3.6 17:31:07 10° WSW 17:34:52 43° NW 17:36:23 29° NNE
NOSS 2-2 (E) 4.2 17:32:19 10° W 17:34:58 26° NNW 17:35:27 24° N
CZ-2D R/B 3.3 17:31:01 10° SSE 17:35:10 68° ENE 17:39:17 10° N
Cosmos 1244 Rocket 4.4 17:29:41 10° N 17:35:59 70° ENE 17:42:09 10° SSE
SKYMED 2 3.7 17:35:14 41° ENE 17:36:16 51° E 17:40:30 10° S
COSMOS 2455 3.9 17:34:24 10° SSE 17:38:36 25° ESE 17:38:36 25° ESE
Meteor 2-2 Rocket 4.3 17:34:00 10° S 17:39:27 54° E 17:42:47 23° NNE
Okean 1 4.3 17:36:22 10° SSE 17:38:21 28° SSE 17:38:21 28° SSE
Cosmos 494 Rocket 4.3 17:37:07 10° NNW 17:42:10 44° NE 17:42:50 42° ENE
Cosmos 1844 Rocket 2.9 17:39:00 10° NNW 17:44:30 48° NE 17:45:49 40° E
Cosmos 2219 3.4 17:38:48 10° NW 17:44:32 73° WSW 17:50:15 10° SSE
Cosmos 1953 Rocket 4.3 17:42:10 10° NNW 17:46:31 54° W 17:50:52 10° S
Cosmos 1980 Rocket 2.1 17:41:18 10° SSW 17:46:56 73° ESE 17:49:21 35° NE
SL-08 R/B 4.4 17:40:50 10° N 17:47:10 71° ENE 17:53:30 10° SSE
Aureole 1 Rocket 3.4 17:44:05 10° SSW 17:48:51 77° ESE 17:51:47 30° NNE
Meteor 1-26 Rocket 4.0 17:44:43 10° S 17:50:02 65° E 17:52:49 29° NNE
Cosmos 1386 Rocket 4.4 17:45:00 10° N 17:51:01 58° ENE 17:57:06 10° SSE
PSLV R/B 3.2 17:49:58 41° SE 17:51:16 72° ENE 17:55:21 10° NNW
Cosmos 2263 Rocket 3.2 17:47:10 10° NW 17:52:36 47° WSW 17:58:00 10° S
ARIANE 5 R/B 4.0 17:48:48 10° SSW 17:53:32 38° W 17:58:21 10° NNW
SL-19 R/B 4.1 17:48:45 10° SSE 17:54:13 79° ENE 18:00:02 10° NNW
COSMO-SKYMED 1 3.4 17:59:08 34° SSE 17:59:08 34° SSE 18:01:39 10° S
NOSS 3-2 (A) 4.3 17:52:33 10° W 17:57:49 39° NNW 18:00:32 27° NNE
Cosmos 1680 Rocket 3.3 17:52:52 10° NNW 17:58:06 74° ENE 18:00:24 34° SE
NOSS 3-2 (C) 3.8 17:55:21 10° WSW 18:00:38 54° NNW 18:03:20 32° NNE
NOAA 6 3.8 17:58:28 10° SSE 18:03:33 77° ENE 18:08:40 10° NNW
Lacrosse 4 Rocket 3.9 18:02:42 10° NNW 18:03:37 11° NNW 18:03:54 11° N
Cosmos 2369 3.7 17:59:00 10° SSW 18:04:37 60° ESE 18:05:20 55° E
Cosmos 1943 Rocket 4.1 18:01:51 10° NNW 18:04:11 15° N 18:04:11 15° N
Resurs 01 Rocket 3.7 18:11:53 16° N 18:11:53 16° N 18:12:49 10° N
Cosmos 44 Rocket 3.2 18:06:30 10° NW 18:11:39 75° NE 18:11:53 73° ENE
SPOT 1/Viking Rocket 4.5 18:12:32 10° S 18:17:33 48° W 18:22:36 10° NNW
Cosmos 2369 Rocket 4.4 18:17:15 10° NNW 18:19:45 13° N 18:20:47 12° N
Cosmos 2058 Rocket 3.8 18:20:43 10° SSW 18:25:06 52° WNW 18:26:26 38° NNW
Cosmos 1697 Rocket 3.8 18:21:33 10° WSW 18:26:46 38° NW 18:29:16 26° N
USA 281 4.1 18:28:12 32° NNE 18:28:12 32° NNE 18:32:46 10° NNW
CENTAUR R/B 3.7 18:27:38 10° WNW 18:34:06 38° N 18:35:36 35° NNE
Cosmos 2333 Rocket 4.5 18:29:21 10° S 18:29:34 11° SSE 18:29:34 11° SSE
Lacrosse 5 rocket 3.1 18:30:51 10° WNW 18:32:26 24° WNW 18:32:26 24° WNW
Cosmos 2278 Rocket 4.1 18:30:40 10° NNW 18:32:43 16° N 18:32:43 16° N
Meteor 1-14 Rocket 4.2 18:31:56 10° NNW 18:37:44 81° W 18:39:09 53° S
Cosmos-2242 4.5 18:43:41 10° SW 18:47:34 34° WNW 18:47:46 34° WNW
Cosmos 1844 4.0 18:49:47 10° NW 18:54:37 62° WNW 18:54:37 62° WNW
Cosmos 1898 Rocket 4.3 18:51:49 10° SW 18:56:45 48° WNW 18:56:45 48° WNW
USA 215 3.2 18:59:28 76° N 18:59:28 76° N 19:05:51 10° WNW
GEOS 3 Rocket 4.5 19:00:12 46° NNW 19:00:12 46° NNW 19:05:13 10° WSW
USA 238 DEB 3.8 18:55:38 10° WSW 19:01:52 62° NNW 19:02:15 61° NNW
USA 238 3.8 18:55:44 10° WSW 19:01:59 63° NW 19:02:21 62° NNW
Cosmos 1709 Rocket 4.5 19:04:33 10° NNW 19:09:09 51° NNW 19:09:09 51° NNW
SL-16 R/B 4.1 19:09:50 10° SSW 19:11:20 19° SSW 19:11:20 19° SSW
COSMOS 2455 4.0 19:18:27 10° SW 19:21:46 35° SW 19:21:46 35° SW
Cosmos 1844 Rocket 3.9 19:23:05 10° NW 19:27:30 38° W 19:27:30 38° W
Cosmos 1980 Rocket 3.7 19:26:30 10° WSW 19:31:07 30° NW 19:31:07 30° NW
CENTAUR R/B 4.3 20:18:51 10° NW 20:22:41 33° NNW 20:22:41 33° NNW
